EDT,Max TemperatureF,Mean TemperatureF,Min TemperatureF,Max Dew PointF,MeanDew PointF,Min DewpointF,Max Humidity, Mean Humidity, Min Humidity, Max Sea Level PressureIn, Mean Sea Level PressureIn, Min Sea Level PressureIn, Max VisibilityMiles, Mean VisibilityMiles, Min VisibilityMiles, Max Wind SpeedMPH, Mean Wind SpeedMPH, Max Gust SpeedMPH,PrecipitationIn, CloudCover, Events, WindDirDegrees
2012-10-1,67,59,51,51,49,47,89,73,56,29.94,29.88,29.81,10,10,10,18,8,25,0.00,6,,258
2012-10-2,63,50,36,61,57,49,96,91,86,29.97,29.93,29.89,10,7,2,8,3,,0.04,8,Rain,79
2012-10-3,72,67,61,65,62,60,93,83,73,30.12,30.02,29.95,10,7,3,9,3,12,0.00,8,,256
2012-10-4,74,64,54,59,55,51,93,70,46,30.15,30.10,30.04,10,10,6,17,7,22,0.00,5,,234
2012-10-5,73,64,54,59,54,50,86,76,66,30.04,29.97,29.88,10,10,10,22,10,26,0.01,6,Rain,238
2012-10-6,57,50,42,52,43,33,96,71,46,30.04,29.89,29.81,10,7,2,26,10,36,0.91,6,Rain,262
2012-10-7,52,45,37,43,39,36,100,77,54,30.13,30.06,30.03,10,10,8,13,5,16,0.09,7,Rain,243
2012-10-8,55,45,35,43,39,34,100,80,59,30.25,30.21,30.14,10,10,10,16,5,20,0.00,6,,241
2012-10-9,61,48,34,43,38,33,100,73,46,30.24,30.14,29.99,10,10,9,13,4,17,0.00,2,,201
2012-10-10,57,48,39,45,39,32,93,72,50,29.99,29.88,29.78,10,10,9,28,11,38,T,5,Rain,232
2012-10-11,56,46,36,35,32,28,82,60,38,30.19,30.08,30.01,10,10,10,23,13,31,T,5,,240
2012-10-12,52,41,30,45,33,22,89,64,38,30.47,30.27,30.04,10,10,7,20,9,29,0.15,5,Rain,289
2012-10-13,52,40,28,43,27,18,86,56,26,30.47,30.32,29.97,10,10,10,18,7,28,0.08,5,Rain,183
2012-10-14,76,64,52,58,54,44,93,72,50,29.94,29.82,29.62,10,10,5,23,11,31,0.28,8,Rain,202
2012-10-15,69,58,46,55,47,36,78,66,53,29.80,29.64,29.49,10,10,10,30,16,40,T,7,Rain,246
2012-10-16,52,45,37,40,36,33,92,71,50,29.93,29.89,29.80,10,10,10,18,7,24,T,6,Rain,278
2012-10-17,71,54,37,42,38,35,92,62,31,29.94,29.87,29.79,10,10,10,15,5,18,T,5,Rain,181
2012-10-18,68,59,49,48,44,40,77,60,42,29.90,29.79,29.72,10,9,3,26,11,38,0.27,5,Rain,167
2012-10-19,63,55,46,55,50,45,100,84,67,29.89,29.74,29.62,10,7,1,13,4,15,0.03,6,Fog-Rain,85
2012-10-20,57,52,46,54,44,39,100,78,55,29.78,29.68,29.62,10,8,2,20,11,26,0.01,5,Rain,226
2012-10-21,62,53,43,46,43,37,92,67,42,30.08,29.96,29.78,10,10,10,23,12,32,0.00,3,,254
2012-10-22,65,54,42,49,44,40,93,71,48,30.14,30.10,30.07,10,10,5,15,6,18,0.00,2,,258
2012-10-23,53,50,46,52,49,43,100,87,74,30.11,30.08,30.04,10,6,2,13,6,16,0.75,8,Rain,77
2012-10-24,58,55,51,56,53,50,100,93,86,30.13,30.10,30.08,10,4,2,6,2,8,0.01,8,,84
2012-10-25,81,68,55,58,55,54,100,70,39,30.11,30.06,29.99,10,7,2,17,6,23,0.00,3,,175
2012-10-26,77,63,48,56,52,45,93,72,50,30.17,30.07,30.01,10,10,4,20,9,24,0.01,4,Rain,237
2012-10-27,53,50,46,52,48,44,100,95,89,30.16,30.06,29.96,10,5,2,18,8,24,0.32,8,Rain,357
2012-10-28,46,45,44,45,43,42,100,96,92,30.08,30.02,29.90,10,5,2,18,10,24,0.35,8,Rain,5
2012-10-29,55,51,46,50,46,44,93,90,86,29.89,29.57,29.10,10,4,1,41,22,55,1.44,8,Rain,9
2012-10-30,58,51,43,54,47,39,86,76,66,29.42,29.22,29.08,10,9,2,40,15,53,0.16,8,Rain,83
2012-10-31,47,45,42,40,37,35,89,77,65,29.47,29.44,29.41,10,10,10,12,5,15,0.02,8,Rain,197